|
Cosmos 1092 Rocket - Orbit
|
Wyoming Infrared Observatory;
07:15:39
| Home | Info | Passes |
|
View from above orbital plane
|
View from above satellite
|
Ground track
|
The orbit data is extracted from the following two-line orbital elements,
1 11327U 79030B 13142.13782707 .00000037 00000-0 22280-4 0 5432
2 11327 082.9487 319.9591 0027885 025.5026 111.0640 13.76895008714496
| Epoch (UTC): | 22 May 2013 03:18:28 |
| Eccentricity: | 0.0027885 |
| inclination: | 82.9487° |
| perigee height: | 954 km |
| apogee height: | 995 km |
| right ascension of ascending node: | 319.9591° |
| argument of perigee: | 25.5026° |
| revolutions per day: | 13.76895008 |
| mean anomaly at epoch: | 111.0640° |
| orbit number at epoch: | 71449 |
The dashed part of the orbit path shows where the satellite is in the earth's shadow,
|
|